Weather History for KCUL - October, 2012

Change the Weather History Date:

Friday, October 19, 2012

  Actual Average (KEVV) Record (KEVV)
Temperature  
Mean Temperature 52 °F 57 °F  
Max Temperature 56 °F 69 °F 88 °F (2005)
Min Temperature 48 °F 45 °F 26 °F (1972)
Degree Days  
Heating Degree Days 12 9  
Month to date heating degree days 129  
Since 1 July heating degree days 176  
Cooling Degree Days 0 1  
Month to date cooling degree days 26  
Year to date cooling degree days 1392  
Growing Degree Days 2 (Base 50)    
Moisture  
Dew Point 44 °F    
Average Humidity 73    
Maximum Humidity 89    
Minimum Humidity 48    
Precipitation  
Precipitation 0.08 in 0.11 in 1.56 in (1905)
Month to date precipitation 1.94  
Year to date precipitation 35.91  
Snow  
Snow 0.00 in 0.10 in 0.90 in (1989)
Month to date snowfall 0.1  
Since 1 July snowfall 0.1  
Since 1 September snowfall 0.1  
Snow Depth -    
Sea Level Pressure  
Sea Level Pressure 29.67 in    
Wind  
Wind Speed 9 mph (SW)    
Max Wind Speed 18 mph    
Max Gust Speed 23 mph    
Visibility 9 miles    
Events Rain    
T = Trace of Precipitation, MM = Missing Value Source: NWS Daily Summary

Daily Weather History Graph

Daily Weather History Graph

Search for Another Location

Airport or City:

Trip Planner

Search our weather history database for the weather conditions in past years. The results will help you decide how hot, cold, wet, or windy it might be!

Date:

Astronomy

Oct. 19, 2012 Rise Set
Actual Time 7:05 AM CDT 6:08 PM CDT
Civil Twilight 6:38 AM CDT 6:35 PM CDT
Nautical Twilight 6:08 AM CDT 7:05 PM CDT
Astronomical Twilight 5:37 AM CDT 7:36 PM CDT
Moon 11:45 AM CDT (10/19) 9:49 PM CDT (10/19)
Length of Visible Light 11h 56m
Length of Day
11h 03m
Waxing Crescent, 24% of the Moon is Illuminated
Oct 19
Waxing Crescent
Oct 21
First Quarter
Oct 29
Full
Nov 6
Last Quarter
Nov 13
New

Hourly Weather History & Observations

Time (CDT) Temp. Dew Point Humidity Pressure Visibility Wind Dir Wind Speed Gust Speed Precip Events Conditions
1:15 AM 53.6 °F 40.3 °F 61% 29.58 in 10.0 mi SSW 9.2 mph - N/A   Overcast
1:35 AM 56.5 °F 36.7 °F 48% 29.58 in 10.0 mi SSW 13.8 mph 18.4 mph N/A   Overcast
1:55 AM 56.3 °F 36.9 °F 48% 29.58 in 10.0 mi SSW 11.5 mph 17.3 mph N/A   Overcast
2:15 AM 55.6 °F 37.6 °F 51% 29.58 in 10.0 mi SW 10.4 mph - N/A   Overcast
2:35 AM 55.4 °F 37.9 °F 52% 29.59 in 10.0 mi SW 9.2 mph - N/A   Overcast
2:55 AM 54.7 °F 38.1 °F 54% 29.58 in 10.0 mi SW 6.9 mph - N/A   Overcast
3:15 AM 53.8 °F 39.2 °F 58% 29.58 in 10.0 mi SW 5.8 mph - N/A   Overcast
3:35 AM 53.6 °F 39.4 °F 59% 29.58 in 10.0 mi SSW 5.8 mph - N/A   Overcast
3:55 AM 53.6 °F 39.2 °F 58% 29.58 in 10.0 mi SSW 6.9 mph - N/A   Overcast
4:15 AM 53.4 °F 39.7 °F 60% 29.57 in 10.0 mi SSW 6.9 mph - N/A   Overcast
4:35 AM 52.5 °F 39.9 °F 62% 29.57 in 10.0 mi South 4.6 mph - N/A   Scattered Clouds
4:55 AM 51.4 °F 39.6 °F 64% 29.57 in 10.0 mi SSW 5.8 mph - N/A   Scattered Clouds
5:15 AM 51.8 °F 40.1 °F 64% 29.57 in 10.0 mi South 5.8 mph - N/A   Mostly Cloudy
5:35 AM 51.6 °F 39.4 °F 63% 29.58 in 10.0 mi SSW 6.9 mph - N/A   Scattered Clouds
5:55 AM 51.8 °F 39.2 °F 62% 29.58 in 10.0 mi SSW 4.6 mph - N/A   Clear
6:15 AM 51.4 °F 39.4 °F 63% 29.58 in 10.0 mi SSW 5.8 mph - N/A   Clear
6:35 AM 51.8 °F 39.2 °F 62% 29.58 in 10.0 mi SSW 5.8 mph - N/A   Scattered Clouds
6:55 AM 52.2 °F 39.2 °F 61% 29.58 in 10.0 mi SW 6.9 mph - N/A   Mostly Cloudy
7:15 AM 52.5 °F 39.2 °F 61% 29.58 in 10.0 mi SW 5.8 mph - N/A   Overcast
7:35 AM 52.2 °F 40.5 °F 64% 29.59 in 7.0 mi SW 4.6 mph - N/A   Overcast
7:55 AM 52.2 °F 40.8 °F 65% 29.60 in 10.0 mi SW 5.8 mph - N/A Rain Light Rain
8:15 AM 51.3 °F 42.6 °F 72% 29.61 in 7.0 mi SW 6.9 mph - N/A Rain Rain
8:35 AM 50.9 °F 44.2 °F 78% 29.62 in 7.0 mi SW 5.8 mph - N/A   Drizzle
8:55 AM 50.2 °F 44.6 °F 81% 29.62 in 7.0 mi SW 11.5 mph - 0.02 in Rain Light Rain
9:15 AM 49.6 °F 45.0 °F 84% 29.63 in 7.0 mi SW 10.4 mph - 0.01 in Rain Rain
9:35 AM 49.3 °F 45.5 °F 87% 29.63 in 7.0 mi SW 10.4 mph 18.4 mph 0.02 in Rain Light Rain
9:55 AM 49.5 °F 46.4 °F 89% 29.63 in 5.0 mi SSW 8.1 mph - 0.04 in Rain Light Rain
10:15 AM 50.9 °F 47.5 °F 88% 29.62 in 10.0 mi SSW 10.4 mph - N/A   Overcast
10:35 AM 51.3 °F 46.8 °F 85% 29.63 in 10.0 mi SW 12.7 mph - N/A   Mostly Cloudy
10:55 AM 52.5 °F 47.3 °F 82% 29.64 in 10.0 mi SW 12.7 mph 18.4 mph N/A   Mostly Cloudy
11:15 AM 53.6 °F 47.5 °F 80% 29.64 in 10.0 mi SW 11.5 mph - N/A   Overcast
11:35 AM 53.6 °F 46.0 °F 76% 29.64 in 10.0 mi SW 12.7 mph - N/A   Overcast
11:55 AM 52.0 °F 46.2 °F 81% 29.65 in 4.0 mi WSW 16.1 mph - 0.01 in Rain Rain
12:15 PM 52.5 °F 47.1 °F 82% 29.65 in 10.0 mi WSW 10.4 mph 17.3 mph N/A   Overcast
12:35 PM 52.2 °F 47.5 °F 84% 29.65 in 7.0 mi WSW 10.4 mph - N/A   Light Drizzle
12:55 PM 53.2 °F 47.8 °F 82% 29.65 in 10.0 mi WSW 11.5 mph - N/A   Mostly Cloudy
1:15 PM 54.0 °F 48.0 °F 80% 29.65 in 10.0 mi WSW 15.0 mph - N/A   Overcast
1:35 PM 54.0 °F 46.8 °F 77% 29.65 in 10.0 mi West 18.4 mph 21.9 mph N/A   Mostly Cloudy
1:55 PM 53.6 °F 46.8 °F 78% 29.66 in 10.0 mi WSW 11.5 mph 23.0 mph N/A   Overcast
2:15 PM 55.4 °F 47.7 °F 75% 29.66 in 10.0 mi WSW 12.7 mph 17.3 mph N/A   Overcast
2:35 PM 53.1 °F 47.7 °F 82% 29.67 in 4.0 mi WSW 15.0 mph - 0.01 in Rain Rain
2:55 PM 53.2 °F 47.3 °F 80% 29.68 in 10.0 mi WSW 15.0 mph 23.0 mph 0.01 in   Overcast
3:15 PM 53.6 °F 47.8 °F 81% 29.69 in 10.0 mi WSW 11.5 mph 16.1 mph N/A   Overcast
3:35 PM 53.8 °F 46.8 °F 77% 29.69 in 10.0 mi WSW 13.8 mph 19.6 mph N/A   Overcast
4:15 PM 54.1 °F 46.0 °F 74% 29.70 in 10.0 mi WSW 11.5 mph 16.1 mph N/A   Mostly Cloudy
4:35 PM 54.5 °F 46.2 °F 74% 29.71 in 10.0 mi WSW 13.8 mph - N/A   Mostly Cloudy
4:55 PM 54.5 °F 45.5 °F 72% 29.72 in 10.0 mi WSW 10.4 mph - N/A   Overcast
5:15 PM 54.5 °F 45.3 °F 71% 29.73 in 10.0 mi WSW 10.4 mph 16.1 mph N/A   Overcast
5:35 PM 54.1 °F 45.7 °F 73% 29.74 in 10.0 mi West 10.4 mph - N/A   Overcast
5:55 PM 54.0 °F 45.5 °F 73% 29.75 in 10.0 mi West 10.4 mph - N/A   Overcast
6:15 PM 53.6 °F 45.3 °F 74% 29.75 in 10.0 mi WSW 6.9 mph - N/A   Overcast
6:35 PM 52.7 °F 45.3 °F 76% 29.75 in 10.0 mi WSW 5.8 mph - N/A   Overcast
6:55 PM 52.3 °F 45.5 °F 78% 29.76 in 10.0 mi SW 4.6 mph - N/A   Overcast
7:15 PM 51.4 °F 45.1 °F 79% 29.76 in 7.0 mi SW 5.8 mph - N/A   Overcast
7:35 PM 50.9 °F 45.0 °F 80% 29.76 in 10.0 mi SW 4.6 mph - N/A   Overcast
7:55 PM 50.4 °F 45.5 °F 83% 29.77 in 10.0 mi SW 4.6 mph - N/A   Overcast
8:15 PM 50.5 °F 45.0 °F 81% 29.78 in 10.0 mi WSW 5.8 mph - N/A   Mostly Cloudy
8:35 PM 51.3 °F 45.3 °F 80% 29.78 in 10.0 mi WSW 5.8 mph - N/A   Overcast
8:55 PM 51.8 °F 45.5 °F 79% 29.78 in 10.0 mi WSW 4.6 mph - N/A   Overcast
9:15 PM 51.8 °F 45.5 °F 79% 29.79 in 10.0 mi SW 5.8 mph - N/A   Overcast
9:35 PM 51.6 °F 45.5 °F 80% 29.79 in 7.0 mi SW 5.8 mph - N/A   Overcast
9:55 PM 51.3 °F 45.7 °F 81% 29.79 in 10.0 mi SW 5.8 mph - N/A   Overcast
10:15 PM 51.3 °F 45.7 °F 81% 29.79 in 7.0 mi SW 6.9 mph - N/A   Overcast
10:35 PM 51.1 °F 45.7 °F 82% 29.79 in 10.0 mi WSW 6.9 mph - N/A   Overcast
10:55 PM 50.9 °F 45.1 °F 81% 29.79 in 7.0 mi WSW 8.1 mph - N/A   Overcast
11:15 PM 50.2 °F 45.0 °F 82% 29.79 in 7.0 mi WSW 5.8 mph - N/A   Overcast
11:35 PM 49.8 °F 44.6 °F 82% 29.79 in 10.0 mi SW 6.9 mph - N/A   Overcast
11:55 PM 48.7 °F 44.2 °F 84% 29.80 in 10.0 mi SW 6.9 mph - N/A   Scattered Clouds